1532052000.84,43315,17.0,73954.5,6.09,5.67,5.63,0,*76
1532052002.04,43316,17.0,73952.5,6.13,5.67,5.71,0,*7D
1532052003.23,43317,17.0,73956.0,6.07,5.67,5.63,0,*7A
1532052004.44,43318,17.0,73954.0,6.09,5.63,5.63,0,*7F
1532052005.66,43319,17.0,73958.0,6.09,5.63,5.63,0,*7E
1532052006.87,43320,17.0,73954.5,6.09,5.63,5.63,0,*74
1532052008.08,43321,17.0,73952.0,6.09,5.67,5.67,0,*75
1532052009.29,43322,17.0,73954.8,6.13,5.71,5.67,0,*7A
1532052010.51,43323,17.0,73950.3,6.09,5.67,5.67,0,*77
1532052011.73,43324,17.0,73954.0,6.09,5.67,5.67,0,*70
1532052012.94,43325,17.0,73952.3,6.09,5.67,5.63,0,*75
1532052014.15,43326,17.0,73958.5,6.09,5.67,5.63,0,*76
1532052015.36,43327,17.0,73952.3,6.13,5.71,5.67,0,*7F
1532052016.57,43328,17.0,73954.3,6.13,5.67,5.67,0,*77
1532052017.78,43329,17.0,73952.5,6.09,5.63,5.63,0,*7D
1532052018.99,43330,17.0,73958.0,6.13,5.67,5.71,0,*79
1532052020.19,43331,17.0,73954.5,6.13,5.67,5.71,0,*78
1532052021.41,43332,17.0,73958.3,6.09,5.67,5.63,0,*73
1532052022.59,43333,17.0,73954.3,6.15,5.71,5.67,0,*7C
1532052023.77,43334,17.0,73954.8,6.15,5.67,5.71,0,*7B
1532052024.98,43335,17.0,73954.8,6.13,5.71,5.67,0,*7C
1532052026.17,43336,17.0,73958.0,6.15,5.67,5.67,0,*7E
1532052027.35,43337,17.0,73952.5,6.15,5.67,5.67,0,*7F
1532052028.56,43338,17.0,73954.5,6.13,5.71,5.67,0,*71
1532052029.77,43339,17.0,73952.3,6.13,5.71,5.67,0,*70
1532052030.95,43340,17.0,73952.0,6.15,5.71,5.67,0,*78
1532052032.13,43341,17.0,73956.3,6.15,5.71,5.67,0,*79
1532052033.34,43342,17.0,73958.8,6.13,5.71,5.71,0,*7B
1532052034.56,43343,17.0,73952.8,6.17,5.71,5.73,0,*7C
1532052035.75,43344,17.0,73956.5,6.15,5.67,5.67,0,*7B
1532052036.95,43345,17.0,73956.5,6.13,5.71,5.71,0,*7C
1532052038.14,43346,17.0,73956.5,6.15,5.71,5.67,0,*7E
1532052039.32,43347,17.0,73952.8,6.15,5.71,5.71,0,*78
1532052040.52,43348,17.0,73954.5,6.13,5.67,5.71,0,*76
1532052041.73,43349,17.0,73958.0,6.13,5.71,5.71,0,*70
1532052042.93,43350,17.0,73950.8,6.13,5.71,5.71,0,*78
1532052044.11,43351,17.0,73952.5,6.15,5.67,5.71,0,*78
1532052045.3,43352,17.0,73952.0,6.15,5.67,5.59,0,*71
1532052046.53,43353,17.0,73956.8,6.17,5.71,5.73,0,*7D
1532052047.71,43354,17.0,73952.5,6.15,5.71,5.71,0,*7A
1532052048.89,43355,17.0,73952.3,6.15,5.67,5.67,0,*7B
1532052050.13,43356,17.0,73954.8,6.17,5.73,5.71,0,*78
1532052051.31,43357,17.0,73954.8,6.15,5.71,5.67,0,*7E
1532052052.5,43358,17.0,73954.8,6.15,5.67,5.67,0,*76
1532052053.73,43359,17.0,73954.8,6.17,5.73,5.71,0,*77
1532052054.92,43360,17.0,73952.5,6.15,5.67,5.67,0,*7D
1532052056.1,43361,17.0,73952.3,6.15,5.71,5.71,0,*7C
1532052057.28,43362,17.0,73954.0,6.15,5.67,5.71,0,*78
1532052058.46,43363,17.0,73954.8,6.15,5.71,5.67,0,*79
1532052059.65,43364,17.0,73956.0,6.15,5.71,5.67,0,*7E
1532052060.83,43365,17.0,73952.8,6.15,5.67,5.67,0,*78
1532052062.02,43366,17.0,73954.0,6.15,5.67,5.67,0,*7B
1532052063.21,43367,17.0,73954.0,6.15,5.67,5.67,0,*7A
1532052064.39,43368,17.0,73952.0,6.15,5.59,5.71,0,*7F
1532052065.57,43369,17.0,73956.3,6.15,5.67,5.67,0,*74
1532052066.76,43370,17.0,73952.8,6.15,5.67,5.67,0,*7C
1532052067.97,43371,17.0,73954.0,6.17,5.63,5.63,0,*7F
1532052069.15,43372,17.0,73954.5,6.15,5.59,5.59,0,*7E
1532052070.36,43373,17.0,73956.5,6.17,5.63,5.63,0,*7D
1532052071.54,43374,17.0,73956.0,6.15,5.59,5.59,0,*78
1532052072.73,43375,17.0,73952.8,6.15,5.59,5.67,0,*74
1532052073.91,43376,17.0,73954.8,6.15,5.59,5.59,0,*7A
1532052075.09,43377,17.0,73954.0,6.15,5.59,5.59,0,*7B
1532052076.3,43378,17.0,73952.8,6.15,5.55,5.59,0,*78
1532052077.5,43379,17.0,73954.8,6.15,5.59,5.55,0,*79
1532052078.71,43380,17.0,73952.5,6.17,5.71,5.63,0,*72
1532052079.91,43381,17.0,73954.8,6.15,5.55,5.59,0,*7E
1532052081.12,43382,17.0,73954.5,6.15,5.59,5.55,0,*7D
1532052082.33,43383,17.0,73954.3,6.17,5.63,5.59,0,*7B
1532052083.51,43384,17.0,73954.0,6.15,5.59,5.59,0,*77
1532052084.7,43385,17.0,73958.3,6.15,5.67,5.67,0,*76
1532052085.91,43386,17.0,73952.5,6.17,5.63,5.71,0,*74
1532052087.12,43387,17.0,73952.8,6.17,5.63,5.71,0,*75
1532052088.3,43388,17.0,73958.5,6.15,5.67,5.59,0,*76
1532052089.51,43389,17.0,73954.0,6.17,5.71,5.71,0,*78
1532052090.69,43390,17.0,73952.5,6.15,5.59,5.67,0,*7F
1532052091.92,43391,17.0,73954.0,6.19,5.73,5.73,0,*7F
1532052093.13,43392,17.0,73954.8,6.17,5.63,5.71,0,*71
1532052094.32,43393,17.0,73954.8,6.15,5.67,5.67,0,*71
1532052095.53,43394,17.0,73954.5,6.17,5.63,5.71,0,*77
1532052096.76,43395,17.0,73956.3,6.17,5.73,5.67,0,*70
1532052097.95,43396,17.0,73954.8,6.15,5.67,5.67,0,*74
1532052099.13,43397,17.0,73952.5,6.15,5.71,5.71,0,*75
1532052100.31,43398,17.0,73952.8,6.15,5.71,5.71,0,*7A
1532052101.54,43399,17.0,73954.8,6.17,5.71,5.73,0,*7B
1532052102.79,43400,17.0,73956.0,6.17,5.73,5.73,0,*7E
1532052104.01,43401,17.0,73954.0,6.17,5.71,5.73,0,*7D
1532052105.24,43402,17.0,73952.5,6.17,5.71,5.73,0,*7E
1532052106.47,43403,17.0,73954.5,6.17,5.71,5.73,0,*7F
1532052107.69,43404,17.0,73954.8,6.19,5.77,5.77,0,*74
1532052108.92,43405,17.0,73954.3,6.17,5.71,5.73,0,*79
1532052110.12,43406,17.0,73952.5,6.17,5.71,5.71,0,*78
1532052111.35,43407,17.0,73954.5,6.17,5.71,5.73,0,*7B
1532052112.6,43408,17.0,73952.0,6.17,5.73,5.73,0,*76
1532052113.83,43409,17.0,73952.3,6.17,5.71,5.73,0,*75
1532052115.08,43410,17.0,73952.8,6.17,5.73,5.73,0,*7F
1532052116.26,43411,17.0,73954.0,6.15,5.71,5.71,0,*7C
1532052117.48,43412,17.0,73952.8,6.19,5.77,5.73,0,*77
1532052118.69,43413,17.0,73952.8,6.17,5.71,5.71,0,*7C
1532052119.95,43414,17.0,73952.8,6.17,5.73,5.81,0,*76
1532052121.15,43415,17.0,73954.5,6.17,5.71,5.71,0,*7A
1532052122.38,43416,17.0,73954.8,6.17,5.71,5.73,0,*7B
1532052123.61,43417,17.0,73952.8,6.17,5.81,5.71,0,*77
1532052124.84,43418,17.0,73956.3,6.17,5.71,5.73,0,*75
1532052126.06,43419,17.0,73952.5,6.19,5.77,5.77,0,*78
1532052127.28,43420,17.0,73956.3,6.19,5.77,5.77,0,*72
1532052128.51,43421,17.0,73958.5,6.19,5.77,5.77,0,*73
1532052129.73,43422,17.0,73952.5,6.19,5.73,5.77,0,*74
1532052130.96,43423,17.0,73952.8,6.19,5.85,5.73,0,*78
1532052132.2,43424,17.0,73954.5,6.19,5.85,5.85,0,*76
1532052133.42,43425,17.0,73952.5,6.19,5.77,5.77,0,*77
1532052134.64,43426,17.0,73952.0,6.19,5.77,5.73,0,*70
1532052135.87,43427,17.0,73954.0,6.19,5.77,5.73,0,*71
1532052137.09,43428,17.0,73954.5,6.19,5.73,5.77,0,*7E
1532052138.32,43429,17.0,73954.5,6.21,5.73,5.77,0,*74
1532052139.55,43430,17.0,73954.5,6.19,5.73,5.73,0,*73
1532052140.77,43431,17.0,73954.0,6.21,5.73,5.77,0,*7D
1532052141.99,43432,17.0,73954.0,6.19,5.77,5.77,0,*71
1532052143.22,43433,17.0,73954.8,6.19,5.77,5.73,0,*74
1532052144.44,43434,17.0,73954.0,6.19,5.77,5.77,0,*77
1532052145.67,43435,17.0,73954.8,6.19,5.73,5.73,0,*76
1532052146.89,43436,17.0,73954.3,6.19,5.77,5.73,0,*71
1532052148.12,43437,17.0,73956.5,6.19,5.73,5.73,0,*74
1532052149.35,43438,17.0,73958.3,6.19,5.73,5.77,0,*7F
1532052150.58,43439,17.0,73956.3,6.19,5.73,5.73,0,*7A
1532052151.8,43440,17.0,73952.5,6.21,5.77,5.73,0,*7B
1532052153.02,43441,17.0,73954.0,6.21,5.73,5.77,0,*7A
1532052154.24,43442,17.0,73954.3,6.21,5.77,5.77,0,*7D
1532052155.46,43443,17.0,73954.0,6.21,5.77,5.77,0,*7C
1532052156.69,43444,17.0,73954.8,6.19,5.73,5.77,0,*74
1532052157.9,43445,17.0,73954.3,6.21,5.77,5.77,0,*7A
1532052159.13,43446,17.0,73954.5,6.21,5.73,5.77,0,*7D
1532052160.34,43447,17.0,73954.0,6.21,5.77,5.77,0,*78
1532052161.58,43448,17.0,73954.8,6.19,5.73,5.85,0,*75
1532052162.8,43449,17.0,73954.3,6.21,5.77,5.73,0,*72
1532052164.02,43450,17.0,73956.5,6.19,5.73,5.73,0,*75
1532052165.24,43451,17.0,73954.5,6.21,5.77,5.77,0,*7F
1532052166.44,43452,17.0,73954.3,6.21,5.67,5.73,0,*79
1532052167.67,43453,17.0,73954.0,6.19,5.73,5.73,0,*76
1532052168.9,43454,17.0,73954.0,6.21,5.73,5.77,0,*7E
1532052170.1,43455,17.0,73956.3,6.21,5.67,5.77,0,*7A
1532052171.31,43456,17.0,73954.0,6.21,5.73,5.67,0,*7D
1532052172.53,43457,17.0,73956.8,6.21,5.73,5.73,0,*79
1532052173.75,43458,17.0,73954.8,6.21,5.73,5.73,0,*76
1532052174.97,43459,17.0,73952.3,6.19,5.73,5.67,0,*79
1532052176.22,43460,17.0,73954.8,6.23,5.77,5.77,0,*7F
1532052177.44,43461,17.0,73952.8,6.21,5.73,5.73,0,*7C
1532052178.66,43462,17.0,73954.8,6.21,5.77,5.73,0,*7B
1532052179.88,43463,17.0,73954.5,6.21,5.73,5.73,0,*7E
1532052181.11,43464,17.0,73954.0,6.21,5.73,5.73,0,*79
1532052182.33,43465,17.0,73956.8,6.21,5.73,5.73,0,*78
1532052183.53,43466,17.0,73952.8,6.21,5.67,5.73,0,*7E
1532052184.76,43467,17.0,73954.3,6.19,5.73,5.73,0,*71
1532052185.99,43468,17.0,73952.0,6.21,5.73,5.73,0,*75
1532052187.22,43469,17.0,73954.0,6.19,5.73,5.73,0,*7F
1532052188.44,43470,17.0,73956.0,6.21,5.73,5.73,0,*7C
1532052189.65,43471,17.0,73958.8,6.21,5.73,5.67,0,*78
1532052190.87,43472,17.0,73954.3,6.21,5.73,5.77,0,*7A
1532052192.1,43473,17.0,73956.3,6.23,5.77,5.71,0,*7B
1532052193.32,43474,17.0,73954.3,6.21,5.73,5.77,0,*7C
1532052194.55,43475,17.0,73954.0,6.21,5.73,5.73,0,*79
1532052195.76,43476,17.0,73954.5,6.21,5.73,5.67,0,*7F
1532052196.98,43477,17.0,73956.3,6.21,5.73,5.73,0,*7B
1532052198.21,43478,17.0,73954.5,6.21,5.73,5.73,0,*74
1532052199.41,43479,17.0,73954.5,6.21,5.73,5.67,0,*70
1532052200.6,43480,17.0,73952.5,6.21,5.67,5.67,0,*73
1532052201.79,43481,17.0,73956.0,6.21,5.67,5.67,0,*72
1532052202.99,43482,17.0,73956.0,6.23,5.71,5.71,0,*73
1532052204.22,43483,17.0,73954.3,6.21,5.73,5.73,0,*70
1532052205.44,43484,17.0,73958.3,6.21,5.73,5.73,0,*77
1532052206.63,43485,17.0,73958.5,6.21,5.67,5.67,0,*76
1532052207.81,43486,17.0,73954.8,6.21,5.71,5.71,0,*75
1532052209.03,43487,17.0,73954.3,6.23,5.71,5.77,0,*70
1532052210.24,43488,17.0,73954.8,6.21,5.73,5.67,0,*7E
1532052211.47,43489,17.0,73954.3,6.23,5.77,5.71,0,*7E
1532052212.68,43490,17.0,73954.3,6.23,5.71,5.67,0,*77
1532052213.86,43491,17.0,73956.5,6.21,5.67,5.63,0,*77
1532052215.05,43492,17.0,73954.3,6.21,5.67,5.63,0,*74
1532052216.23,43493,17.0,73956.3,6.25,5.71,5.71,0,*75
1532052217.41,43494,17.0,73954.5,6.21,5.63,5.67,0,*72
1532052218.6,43495,17.0,73954.3,6.21,5.67,5.67,0,*77
1532052219.81,43496,17.0,73954.5,6.23,5.71,5.71,0,*76
1532052221.02,43497,17.0,73954.8,6.23,5.71,5.71,0,*77
1532052222.23,43498,17.0,73954.3,6.23,5.67,5.71,0,*7F
1532052223.44,43499,17.0,73954.0,6.19,5.73,5.63,0,*71
1532052224.65,43500,17.0,73954.8,6.23,5.71,5.71,0,*78
1532052225.83,43501,17.0,73954.5,6.21,5.67,5.67,0,*7B
1532052227.01,43502,17.0,73958.3,6.21,5.63,5.67,0,*7C
1532052228.24,43503,17.0,73954.0,6.23,5.71,5.77,0,*7D
1532052229.44,43504,17.0,73958.0,6.21,5.67,5.73,0,*7B
1532052230.65,43505,17.0,73956.5,6.21,5.73,5.67,0,*7A
1532052231.88,43506,17.0,73956.3,6.23,5.77,5.71,0,*78
1532052233.11,43507,17.0,73952.8,6.23,5.77,5.71,0,*79
1532052234.31,43508,17.0,73958.8,6.21,5.63,5.73,0,*73
1532052235.52,43509,17.0,73956.3,6.19,5.67,5.73,0,*7D
1532052236.72,43510,17.0,73954.0,6.19,5.67,5.73,0,*75
1532052237.91,43511,17.0,73954.3,6.21,5.67,5.67,0,*7A
1532052239.12,43512,17.0,73954.5,6.19,5.73,5.67,0,*77
1532052240.35,43513,17.0,73956.3,6.23,5.77,5.71,0,*7C
1532052241.56,43514,17.0,73954.8,6.23,5.71,5.71,0,*7D
1532052242.76,43515,17.0,73956.5,6.21,5.67,5.73,0,*7B
1532052243.98,43516,17.0,73958.0,6.21,5.73,5.77,0,*79
1532052245.21,43517,17.0,73952.0,6.21,5.73,5.73,0,*7C
1532052246.44,43518,17.0,73952.3,6.23,5.71,5.81,0,*7E
1532052247.65,43519,17.0,73956.5,6.23,5.71,5.71,0,*70
1532052248.85,43520,17.0,73956.3,6.21,5.67,5.73,0,*7D
1532052250.06,43521,17.0,73952.3,6.19,5.67,5.73,0,*77
1532052251.26,43522,17.0,73954.3,6.21,5.67,5.73,0,*7F
1532052252.48,43523,17.0,73956.0,6.21,5.73,5.73,0,*7B
1532052253.68,43524,17.0,73956.3,6.21,5.67,5.73,0,*79
1532052254.87,43525,17.0,73954.5,6.21,5.67,5.67,0,*7D
1532052256.05,43526,17.0,73958.5,6.21,5.63,5.67,0,*7A
1532052257.26,43527,17.0,73958.0,6.23,5.71,5.71,0,*7D
1532052258.47,43528,17.0,73954.8,6.23,5.71,5.71,0,*72
1532052259.68,43529,17.0,73958.0,6.23,5.67,5.71,0,*74
1532052260.91,43530,17.0,73952.8,6.23,5.77,5.71,0,*7D
1532052262.14,43531,17.0,73956.5,6.23,5.77,5.71,0,*7C
1532052263.37,43532,17.0,73952.5,6.23,5.71,5.77,0,*7F
1532052264.58,43533,17.0,73954.3,6.23,5.67,5.71,0,*7F
1532052265.76,43534,17.0,73954.8,6.25,5.71,5.71,0,*79
1532052266.97,43535,17.0,73954.3,6.23,5.71,5.71,0,*7E
1532052268.18,43536,17.0,73956.8,6.23,5.71,5.67,0,*7A
1532052269.39,43537,17.0,73958.8,6.23,5.71,5.71,0,*7C
1532052270.6,43538,17.0,73954.0,6.23,5.71,5.71,0,*73
1532052271.81,43539,17.0,73952.8,6.23,5.71,5.71,0,*72
1532052273.01,43540,17.0,73952.8,6.23,5.71,5.71,0,*7C
1532052274.22,43541,17.0,73958.0,6.23,5.71,5.71,0,*7D
1532052275.43,43542,17.0,73954.5,6.23,5.71,5.71,0,*7E
1532052276.66,43543,17.0,73956.3,6.23,5.77,5.67,0,*7E
1532052277.87,43544,17.0,73956.5,6.23,5.67,5.71,0,*7F
1532052279.08,43545,17.0,73958.8,6.23,5.71,5.71,0,*79
1532052280.29,43546,17.0,73958.0,6.23,5.71,5.71,0,*7A
1532052281.5,43547,17.0,73952.0,6.23,5.71,5.71,0,*7B
1532052282.69,43548,17.0,73954.0,6.25,5.67,5.71,0,*75
1532052283.87,43549,17.0,73954.0,6.21,5.67,5.67,0,*77
1532052285.08,43550,17.0,73954.8,6.23,5.71,5.71,0,*7D
1532052286.29,43551,17.0,73952.8,6.23,5.71,5.71,0,*7C
1532052287.48,43552,17.0,73952.5,6.21,5.67,5.67,0,*7D
1532052288.69,43553,17.0,73958.5,6.23,5.71,5.67,0,*79
1532052289.9,43554,17.0,73952.0,6.23,5.67,5.71,0,*7E
1532052291.11,43555,17.0,73956.8,6.23,5.71,5.71,0,*78
1532052292.32,43556,17.0,73952.5,6.23,5.71,5.67,0,*7C
1532052293.53,43557,17.0,73954.0,6.23,5.67,5.71,0,*7D
1532052294.74,43558,17.0,73956.0,6.23,5.71,5.71,0,*75
1532052295.95,43559,17.0,73954.8,6.23,5.71,5.71,0,*74
1532052297.16,43560,17.0,73952.5,6.23,5.71,5.71,0,*7E
1532052298.37,43561,17.0,73954.0,6.23,5.67,5.71,0,*78
1532052299.58,43562,17.0,73956.3,6.23,5.71,5.71,0,*7C
1532052300.78,43563,17.0,73954.0,6.23,5.71,5.71,0,*7D
1532052301.97,43564,17.0,73956.3,6.25,5.71,5.71,0,*7C
1532052303.18,43565,17.0,73954.0,6.23,5.71,5.71,0,*7B
1532052304.39,43566,17.0,73954.3,6.23,5.67,5.67,0,*78
1532052305.62,43567,17.0,73956.0,6.23,5.71,5.77,0,*7F
1532052306.87,43568,17.0,73952.5,6.23,5.77,5.77,0,*76
1532052308.11,43569,17.0,73954.3,6.23,5.77,5.77,0,*77
1532052309.3,43570,17.0,73954.8,6.25,5.71,5.71,0,*79
1532052310.51,43571,17.0,73954.0,6.23,5.71,5.71,0,*7E
1532052311.72,43572,17.0,73954.0,6.23,5.67,5.71,0,*7A
1532052312.93,43573,17.0,73954.3,6.23,5.71,5.71,0,*7C
1532052314.14,43574,17.0,73954.0,6.23,5.71,5.71,0,*7B
1532052315.34,43575,17.0,73958.0,6.23,5.71,5.71,0,*7A
1532052316.55,43576,17.0,73956.5,6.25,5.77,5.71,0,*79
1532052317.73,43577,17.0,73952.5,6.25,5.71,5.71,0,*7E
1532052318.94,43578,17.0,73952.0,6.23,5.71,5.71,0,*77
1532052320.15,43579,17.0,73956.5,6.23,5.71,5.67,0,*71
1532052321.36,43580,17.0,73954.3,6.23,5.71,5.71,0,*70
1532052322.59,43581,17.0,73952.3,6.23,5.77,5.67,0,*70
1532052323.8,43582,17.0,73954.3,6.25,5.77,5.71,0,*72
1532052324.98,43583,17.0,73952.5,6.25,5.71,5.71,0,*75
1532052326.17,43584,17.0,73954.5,6.25,5.71,5.71,0,*72
1532052327.38,43585,17.0,73952.5,6.23,5.71,5.71,0,*75
1532052328.59,43586,17.0,73954.5,6.23,5.67,5.71,0,*71
1532052329.8,43587,17.0,73956.5,6.23,5.71,5.71,0,*77
1532052331.04,43588,17.0,73952.0,6.23,5.77,5.77,0,*78
1532052332.27,43589,17.0,73954.3,6.25,5.81,5.77,0,*76
1532052333.5,43590,17.0,73952.0,6.25,5.77,5.77,0,*77
1532052334.73,43591,17.0,73956.5,6.23,5.77,5.71,0,*76
1532052335.97,43592,17.0,73952.0,6.23,5.77,5.77,0,*73
1532052337.2,43593,17.0,73952.8,6.23,5.71,5.77,0,*74
1532052338.41,43594,17.0,73958.8,6.23,5.71,5.71,0,*75
1532052339.64,43595,17.0,73954.8,6.23,5.71,5.77,0,*72
1532052340.86,43596,17.0,73956.0,6.25,5.77,5.77,0,*71
1532052342.12,43597,17.0,73954.5,6.27,5.85,5.85,0,*72
1532052343.37,43598,17.0,73958.5,6.23,5.77,5.81,0,*70
1532052344.59,43599,17.0,73954.0,6.25,5.77,5.77,0,*7E
1532052345.82,43600,17.0,73956.0,6.23,5.77,5.71,0,*7D
1532052347.05,43601,17.0,73956.8,6.25,5.81,5.77,0,*75
1532052348.27,43602,17.0,73956.8,6.25,5.77,5.77,0,*7F
1532052349.52,43603,17.0,73958.3,6.23,5.77,5.77,0,*78
1532052350.75,43604,17.0,73958.0,6.25,5.77,5.77,0,*79
1532052351.97,43605,17.0,73956.5,6.25,5.77,5.81,0,*71
1532052353.21,43606,17.0,73958.0,6.25,5.81,5.81,0,*7B
1532052354.44,43607,17.0,73952.8,6.25,5.81,5.81,0,*7A
1532052355.7,43608,17.0,73954.5,6.23,5.81,5.81,0,*73
1532052356.96,43609,17.0,73960.0,6.27,5.81,5.81,0,*76
1532052358.19,43610,17.0,73954.8,6.25,5.77,5.81,0,*75
1532052359.41,43611,17.0,73954.3,6.25,5.77,5.81,0,*74
1532052360.65,43612,17.0,73954.3,6.25,5.81,5.81,0,*7E
1532052361.88,43613,17.0,73954.5,6.25,5.81,5.81,0,*7F
1532052363.11,43614,17.0,73952.0,6.25,5.81,5.77,0,*71
1532052364.37,43615,17.0,73956.3,6.27,5.81,5.85,0,*7F
1532052365.63,43616,17.0,73954.3,6.27,5.81,5.85,0,*7C
1532052366.89,43617,17.0,73958.3,6.27,5.85,5.85,0,*79
1532052368.15,43618,17.0,73958.5,6.27,5.81,5.85,0,*72
1532052369.38,43619,17.0,73952.3,6.25,5.89,5.81,0,*7D
1532052370.64,43620,17.0,73952.8,6.27,5.85,5.93,0,*7A
1532052371.87,43621,17.0,73956.0,6.25,5.81,5.89,0,*76
1532052373.11,43622,17.0,73956.8,6.25,5.89,5.89,0,*7D
1532052374.35,43623,17.0,73958.3,6.25,5.89,5.89,0,*7C
1532052375.58,43624,17.0,73954.8,6.25,5.81,5.89,0,*73
1532052376.82,43625,17.0,73956.3,6.25,5.93,5.89,0,*71
1532052378.03,43626,17.0,73954.0,6.29,5.93,5.95,0,*73
1532052379.24,43627,17.0,73954.8,6.27,5.95,5.95,0,*7A
1532052380.45,43628,17.0,73956.5,6.27,5.95,5.95,0,*75
1532052381.72,43629,17.0,73956.8,6.27,5.93,5.93,0,*74
1532052382.98,43630,17.0,73954.5,6.27,5.93,5.93,0,*7C
1532052384.24,43631,17.0,73958.0,6.27,5.93,5.93,0,*7D
1532052385.5,43632,17.0,73956.8,6.27,5.93,5.93,0,*7E
1532052386.76,43633,17.0,73956.5,6.27,5.85,5.93,0,*78
1532052387.99,43634,17.0,73956.0,6.29,5.85,5.93,0,*71
1532052389.22,43635,17.0,73956.3,6.27,5.85,5.95,0,*78
1532052390.45,43636,17.0,73956.5,6.29,5.93,5.85,0,*73
1532052391.69,43637,17.0,73952.8,6.29,5.93,5.85,0,*72
1532052392.94,43638,17.0,73956.8,6.27,5.85,5.85,0,*74
1532052394.17,43639,17.0,73958.3,6.29,5.81,5.85,0,*7F
1532052395.4,43640,17.0,73956.8,6.29,5.85,5.93,0,*72
1532052396.65,43641,17.0,73956.0,6.27,5.85,5.93,0,*7D
1532052397.88,43642,17.0,73958.3,6.29,5.85,5.93,0,*70
1532052399.14,43643,17.0,73956.5,6.27,5.85,5.93,0,*7F
1532052400.37,43644,17.0,73956.3,6.29,5.93,5.93,0,*71
1532052401.63,43645,17.0,73956.5,6.27,5.85,5.93,0,*79
1532052402.85,43646,17.0,73958.3,6.29,5.85,5.93,0,*74
1532052404.08,43647,17.0,73956.3,6.29,5.81,5.93,0,*71
1532052405.31,43648,17.0,73952.8,6.29,5.85,5.93,0,*7A
1532052406.53,43649,17.0,73956.0,6.29,5.85,5.85,0,*7C
1532052407.77,43650,17.0,73954.8,6.29,5.93,5.81,0,*77
1532052408.99,43651,17.0,73958.3,6.29,5.85,5.93,0,*72
1532052410.22,43652,17.0,73956.5,6.29,5.93,5.93,0,*76
1532052411.46,43653,17.0,73954.0,6.29,5.93,5.85,0,*70
1532052412.66,43654,17.0,73956.8,6.29,5.93,5.95,0,*76
1532052413.9,43655,17.0,73958.8,6.29,5.93,5.93,0,*71
1532052415.11,43656,17.0,73956.8,6.35,5.99,5.99,0,*7F
1532052416.33,43657,17.0,73958.3,6.35,6.03,5.99,0,*7E
1532052417.53,43658,17.0,73956.3,6.31,5.95,5.95,0,*75
1532052418.77,43659,17.0,73952.8,6.31,5.89,5.95,0,*79
1532052420.01,43660,17.0,73956.5,6.35,5.93,5.99,0,*70
1532052421.24,43661,17.0,73952.5,6.29,5.93,5.93,0,*76
1532052422.48,43662,17.0,73954.5,6.35,5.93,5.99,0,*72
1532052423.69,43663,17.0,73956.0,6.31,5.95,5.95,0,*7D
1532052424.9,43664,17.0,73958.0,6.35,5.99,5.99,0,*7E
1532052426.16,43665,17.0,73956.5,6.35,5.93,5.93,0,*7F
1532052427.39,43666,17.0,73954.5,6.31,5.89,5.95,0,*75
1532052428.6,43667,17.0,73956.0,6.31,5.95,5.95,0,*79
1532052429.81,43668,17.0,73958.8,6.31,5.99,5.99,0,*76
1532052431.02,43669,17.0,73958.3,6.35,5.99,5.99,0,*73
1532052432.24,43670,17.0,73952.3,6.35,5.99,5.99,0,*7B
1532052433.44,43671,17.0,73956.3,6.31,5.95,5.95,0,*7E
1532052434.65,43672,17.0,73958.8,6.31,5.95,5.95,0,*7D
1532052435.86,43673,17.0,73954.0,6.31,5.99,5.95,0,*70
1532052437.07,43674,17.0,73956.5,6.31,5.95,5.95,0,*7B
1532052438.28,43675,17.0,73956.5,6.35,5.99,6.03,0,*7E
1532052439.5,43676,17.0,73956.0,6.35,5.99,6.03,0,*7D
1532052440.71,43677,17.0,73954.8,6.35,5.99,5.99,0,*7C
1532052441.93,43678,17.0,73956.3,6.35,6.03,6.03,0,*73
1532052443.14,43679,17.0,73954.5,6.35,5.99,6.03,0,*72
1532052444.35,43680,17.0,73954.8,6.35,5.99,6.03,0,*74
1532052445.56,43681,17.0,73956.3,6.35,5.99,6.03,0,*75
1532052446.78,43682,17.0,73956.5,6.35,5.99,5.99,0,*76
1532052447.96,43683,17.0,73956.8,6.37,5.99,6.03,0,*75
1532052449.14,43684,17.0,73954.5,6.37,5.99,6.03,0,*72
1532052450.35,43685,17.0,73956.8,6.35,5.99,6.03,0,*71
1532052451.57,43686,17.0,73956.3,6.35,5.99,5.99,0,*72
1532052452.78,43687,17.0,73954.3,6.35,5.99,6.03,0,*73
1532052453.96,43688,17.0,73954.8,6.37,5.99,6.03,0,*7E
1532052455.16,43689,17.0,73954.5,6.37,5.99,5.93,0,*75
1532052456.35,43690,17.0,73954.8,6.37,6.03,6.03,0,*77
1532052457.54,43691,17.0,73958.5,6.37,6.03,6.03,0,*76
1532052458.72,43692,17.0,73952.8,6.37,5.99,6.03,0,*75
1532052459.91,43693,17.0,73954.3,6.37,6.03,5.99,0,*74
1532052461.1,43694,17.0,73956.0,6.37,6.03,5.99,0,*73
1532052462.28,43695,17.0,73958.0,6.37,5.99,5.99,0,*72
1532052463.46,43696,17.0,73958.5,6.37,5.99,5.99,0,*71
1532052464.67,43697,17.0,73958.0,6.39,6.03,6.07,0,*7A
1532052465.85,43698,17.0,73954.5,6.37,5.99,5.99,0,*7F
1532052467.06,43699,17.0,73956.8,6.39,6.03,6.07,0,*74
1532052468.25,43700,17.0,73954.3,6.37,5.99,5.99,0,*7F
1532052469.46,43701,17.0,73958.3,6.39,6.03,6.07,0,*74
1532052470.64,43702,17.0,73956.8,6.37,5.99,5.99,0,*7D
1532052471.86,43703,17.0,73956.3,6.39,6.03,5.99,0,*72
1532052473.07,43704,17.0,73958.0,6.39,6.03,6.07,0,*71
1532052474.28,43705,17.0,73954.3,6.39,6.03,6.03,0,*74
1532052475.49,43706,17.0,73956.0,6.37,5.93,5.99,0,*73
1532052476.7,43707,17.0,73958.0,6.39,5.95,5.95,0,*76
1532052477.91,43708,17.0,73958.3,6.39,5.95,5.95,0,*79
1532052479.09,43709,17.0,73956.8,6.37,5.95,5.95,0,*76
1532052480.3,43710,17.0,73958.3,6.39,5.95,6.03,0,*7C
1532052481.53,43711,17.0,73956.8,6.37,5.89,5.93,0,*74
1532052482.76,43712,17.0,73958.8,6.39,5.95,5.93,0,*74
1532052483.97,43713,17.0,73960.0,6.39,5.95,5.95,0,*73
1532052485.18,43714,17.0,73956.8,6.39,5.95,5.95,0,*74
1532052486.38,43715,17.0,73952.0,6.39,5.95,5.95,0,*75
1532052487.64,43716,17.0,73958.5,6.39,5.93,5.93,0,*76
1532052488.9,43717,17.0,73956.5,6.39,5.93,5.93,0,*77
1532052490.11,43718,16.94,73954.3,6.39,5.95,5.95,0,*78
1532052491.34,43719,17.0,73956.3,6.39,5.95,5.93,0,*7F
1532052492.52,43720,17.0,73952.8,6.41,5.95,5.99,0,*70
1532052493.78,43721,17.0,73954.5,6.39,5.93,5.93,0,*72
1532052495.04,43722,17.0,73954.5,6.39,5.93,5.93,0,*71
1532052496.25,43723,17.0,73956.8,6.39,5.95,5.95,0,*70
1532052497.46,43724,17.0,73954.8,6.39,5.95,5.95,0,*77
1532052498.66,43725,17.0,73958.0,6.43,5.99,5.99,0,*7B
1532052499.85,43726,17.0,73958.5,6.41,5.99,5.95,0,*76
1532052501.07,43727,17.0,73954.5,6.37,5.89,5.93,0,*71
1532052502.33,43728,17.0,73954.3,6.39,5.93,5.93,0,*7B
1532052503.59,43729,17.0,73958.0,6.39,5.81,5.85,0,*7E
1532052504.84,43730,17.0,73954.3,6.39,5.81,5.81,0,*72
1532052506.09,43731,17.0,73952.5,6.39,5.85,5.85,0,*73
1532052507.32,43732,17.0,73954.0,6.41,5.85,5.89,0,*73
1532052508.57,43733,17.0,73952.0,6.39,5.81,5.85,0,*75
1532052509.8,43734,17.0,73952.5,6.41,5.85,5.89,0,*75
1532052511.06,43735,17.0,73954.8,6.39,5.93,5.85,0,*70
1532052512.32,43736,17.0,73952.5,6.39,5.93,5.93,0,*74
1532052513.58,43737,17.0,73958.8,6.39,5.93,5.93,0,*75
1532052514.8,43738,17.0,73952.8,6.37,5.81,5.81,0,*74
1532052516.05,43739,17.0,73958.0,6.39,5.85,5.85,0,*7B
1532052517.28,43740,17.0,73952.8,6.37,5.89,5.89,0,*7B
1532052518.54,43741,17.0,73952.5,6.39,5.93,5.93,0,*74
1532052519.8,43742,17.0,73954.3,6.39,5.93,5.85,0,*70
1532052521.05,43743,17.0,73954.8,6.39,5.85,5.81,0,*72
1532052522.28,43744,17.0,73952.8,6.41,5.89,5.89,0,*7E
1532052523.54,43745,17.0,73954.3,6.39,5.85,5.93,0,*77
1532052524.79,43746,17.0,73954.0,6.39,5.85,5.93,0,*74
1532052526.04,43747,17.0,73952.8,6.39,5.81,5.93,0,*71
1532052527.27,43748,17.0,73952.0,6.37,5.81,5.93,0,*70
1532052528.52,43749,17.0,73958.8,6.39,5.93,5.93,0,*7C
1532052529.75,43750,17.0,73956.5,6.37,5.89,5.89,0,*7A
1532052530.98,43751,17.0,73952.8,6.37,5.89,5.89,0,*7B
1532052532.24,43752,17.0,73954.5,6.39,5.93,5.93,0,*76
1532052533.5,43753,17.0,73958.8,6.39,5.93,5.85,0,*70
1532052534.75,43754,17.0,73956.0,6.39,5.85,5.85,0,*70
1532052536.0,43755,17.0,73956.3,6.39,5.81,5.81,0,*71
1532052537.24,43756,17.0,73954.0,6.41,5.89,5.85,0,*71
1532052538.43,43757,17.0,73952.0,6.37,5.71,5.77,0,*7B
1532052539.68,43758,17.0,73956.8,6.39,5.81,5.81,0,*7C
1532052540.94,43759,17.0,73956.0,6.39,5.73,5.81,0,*70